When you browse on this site, cookies collect data to enhance your experience and personalize the content and advertising you see.
Visit our Privacy Policy to learn more. By continuing to use the site, you agree to this use of cookies and data.
  • In Switzerland
  • List of Countries
  • For 7 days
  • Water Temperature
  • Satellite Maps
  • Weather Map
  • Weather Widgets
  • user-avatar
    Login

    Hourly Weather Suyundyukovo

    Today, 20 November, Tuesday

    Time Temperature Precipitation Wind Pressure Humidity
    00:00 -1°C° 0.2 mm 1 mps 749 mmHg 96%
    01:00 -1°C° 0.2 mm 1 mps 749 mmHg 95%
    02:00 -1°C° 0.2 mm 1 mps 749 mmHg 95%
    03:00 -1°C° 0.2 mm 1 mps 749 mmHg 95%
    04:00 -2°C° 0 mm 1 mps 748 mmHg 96%
    05:00 -2°C° 0.2 mm 1 mps 748 mmHg 96%
    06:00 -2°C° 0.2 mm 1 mps 748 mmHg 96%
    07:00 -2°C° 0.2 mm 1 mps 748 mmHg 96%
    08:00 -1°C° 0.1 mm 1 mps 748 mmHg 95%
    09:00 -1°C° 0.1 mm 1 mps 748 mmHg 95%
    10:00 -1°C° 0 mm 1 mps 747 mmHg 93%
    11:00 -1°C° 0 mm 1 mps 747 mmHg 92%
    12:00 -2°C° 0 mm 2 mps 747 mmHg 91%
    13:00 -2°C° 0 mm 2 mps 747 mmHg 90%
    14:00 -2°C° 0 mm 2 mps 747 mmHg 92%
    15:00 -2°C° 0 mm 2 mps 746 mmHg 94%
    16:00 -3°C° 0 mm 2 mps 746 mmHg 95%
    17:00 -3°C° 0 mm 2 mps 746 mmHg 95%
    18:00 -3°C° 0 mm 2 mps 746 mmHg 96%
    19:00 -3°C° 0 mm 2 mps 745 mmHg 96%
    20:00 -3°C° 0 mm 2 mps 745 mmHg 96%
    21:00 -3°C° 0 mm 2 mps 744 mmHg 95%
    22:00 -4°C° 0 mm 3 mps 744 mmHg 95%
    23:00 -4°C° 0.1 mm 3 mps 743 mmHg 94%

    Tomorrow, 21 November, Wednesday

    Time Temperature Precipitation Wind Pressure Humidity
    00:00 -4°C° 0.1 mm 3 mps 743 mmHg 93%
    01:00 -5°C° 0.1 mm 3 mps 743 mmHg 92%
    02:00 -5°C° 0 mm 4 mps 742 mmHg 91%
    03:00 -5°C° 0 mm 4 mps 741 mmHg 90%
    04:00 -6°C° 0 mm 5 mps 741 mmHg 89%
    05:00 -6°C° 0.1 mm 5 mps 740 mmHg 88%
    06:00 -7°C° 0.1 mm 5 mps 739 mmHg 87%
    07:00 -7°C° 0.1 mm 5 mps 738 mmHg 86%
    08:00 -8°C° 0.2 mm 6 mps 738 mmHg 86%
    09:00 -8°C° 0.2 mm 6 mps 737 mmHg 87%
    10:00 -8°C° 0.2 mm 6 mps 736 mmHg 88%
    11:00 -8°C° 0.5 mm 6 mps 735 mmHg 89%
    12:00 -8°C° 0.5 mm 6 mps 735 mmHg 89%
    13:00 -6°C° 0.5 mm 6 mps 734 mmHg 90%
    14:00 -6°C° 0.4 mm 6 mps 733 mmHg 90%
    15:00 -6°C° 0.4 mm 5 mps 733 mmHg 90%
    16:00 -6°C° 0.4 mm 5 mps 732 mmHg 91%
    17:00 -6°C° 0.3 mm 5 mps 732 mmHg 91%
    18:00 -6°C° 0.3 mm 5 mps 732 mmHg 91%
    19:00 -6°C° 0.3 mm 5 mps 731 mmHg 91%
    20:00 -7°C° 0.2 mm 5 mps 731 mmHg 88%
    21:00 -7°C° 0.2 mm 5 mps 731 mmHg 86%
    22:00 -8°C° 0.2 mm 5 mps 731 mmHg 84%
    23:00 -10°C° 0.1 mm 5 mps 731 mmHg 85%

    Day after tomorrow, 22 November, Thursday

    Time Temperature Precipitation Wind Pressure Humidity
    00:00 -10°C° 0.1 mm 6 mps 732 mmHg 86%
    01:00 -10°C° 0.1 mm 6 mps 732 mmHg 88%
    02:00 -10°C° 0.2 mm 6 mps 732 mmHg 87%
    03:00 -10°C° 0.2 mm 5 mps 732 mmHg 87%
    04:00 -10°C° 0.2 mm 5 mps 732 mmHg 86%
    05:00 -10°C° 0.2 mm 5 mps 732 mmHg 87%
    06:00 -11°C° 0.2 mm 5 mps 733 mmHg 88%
    07:00 -11°C° 0.2 mm 5 mps 733 mmHg 89%
    08:00 -10°C° 0.1 mm 4 mps 733 mmHg 87%
    09:00 -11°C° 0.1 mm 4 mps 733 mmHg 86%
    10:00 -11°C° 0.1 mm 4 mps 734 mmHg 85%
    11:00 -11°C° 0 mm 4 mps 734 mmHg 84%
    12:00 -11°C° 0 mm 4 mps 734 mmHg 84%
    13:00 -11°C° 0 mm 4 mps 734 mmHg 83%
    14:00 -10°C° 0 mm 3 mps 734 mmHg 85%
    15:00 -12°C° 0 mm 3 mps 734 mmHg 87%
    16:00 -13°C° 0 mm 3 mps 734 mmHg 89%
    17:00 -13°C° 0 mm 3 mps 734 mmHg 90%
    18:00 -13°C° 0 mm 3 mps 733 mmHg 92%
    19:00 -14°C° 0 mm 3 mps 733 mmHg 93%
    20:00 -14°C° 0.1 mm 4 mps 732 mmHg 92%
    21:00 -12°C° 0.1 mm 4 mps 731 mmHg 91%
    22:00 -13°C° 0.1 mm 5 mps 731 mmHg 89%
    23:00 -12°C° 0.5 mm 5 mps 730 mmHg 90%

    23 November, Friday

    Time Temperature Precipitation Wind Pressure Humidity
    00:00 -11°C° 0.5 mm 5 mps 729 mmHg 91%
    01:00 -10°C° 0.5 mm 6 mps 729 mmHg 92%
    02:00 -8°C° 0.4 mm 5 mps 728 mmHg 91%
    03:00 -8°C° 0.4 mm 5 mps 728 mmHg 91%
    04:00 -8°C° 0.4 mm 5 mps 728 mmHg 91%
    05:00 -8°C° 0.3 mm 5 mps 728 mmHg 92%
    06:00 -8°C° 0.3 mm 4 mps 728 mmHg 93%
    07:00 -7°C° 0.3 mm 3 mps 728 mmHg 94%
    08:00 -7°C° 0.2 mm 3 mps 728 mmHg 94%
    09:00 -8°C° 0.2 mm 3 mps 729 mmHg 94%
    10:00 -7°C° 0.2 mm 2 mps 729 mmHg 93%
    11:00 -8°C° 0.1 mm 3 mps 729 mmHg 92%
    12:00 -8°C° 0.1 mm 3 mps 730 mmHg 91%
    13:00 -8°C° 0.1 mm 3 mps 730 mmHg 90%
    14:00 -10°C° 0.1 mm 4 mps 731 mmHg 89%
    15:00 -11°C° 0.1 mm 4 mps 732 mmHg 89%
    16:00 -12°C° 0.1 mm 5 mps 732 mmHg 88%
    17:00 -13°C° 0 mm 5 mps 733 mmHg 86%
    18:00 -14°C° 0 mm 5 mps 734 mmHg 85%
    19:00 -16°C° 0 mm 6 mps 734 mmHg 84%
    20:00 -15°C° 0 mm 5 mps 735 mmHg 85%
    21:00 -17°C° 0 mm 5 mps 736 mmHg 86%
    22:00 -18°C° 0 mm 5 mps 737 mmHg 87%
    23:00 -18°C° 0 mm 4 mps 737 mmHg 89%

    24 November, Saturday

    Time Temperature Precipitation Wind Pressure Humidity
    00:00 -18°C° 0 mm 4 mps 738 mmHg 92%
    01:00 -18°C° 0 mm 3 mps 739 mmHg 94%
    02:00 -19°C° 0 mm 3 mps 740 mmHg 95%
    03:00 -19°C° 0 mm 3 mps 740 mmHg 96%
    04:00 -19°C° 0 mm 2 mps 741 mmHg 97%
    05:00 -19°C° 0 mm 2 mps 741 mmHg 97%
    06:00 -19°C° 0 mm 2 mps 741 mmHg 97%
    07:00 -19°C° 0 mm 2 mps 741 mmHg 98%
    08:00 -17°C° 0.1 mm 2 mps 741 mmHg 97%
    09:00 -17°C° 0.1 mm 3 mps 742 mmHg 95%
    10:00 -16°C° 0.1 mm 4 mps 742 mmHg 94%
    11:00 -15°C° 0.1 mm 4 mps 741 mmHg 93%
    12:00 -14°C° 0.1 mm 5 mps 741 mmHg 92%
    13:00 -13°C° 0.1 mm 5 mps 741 mmHg 91%
    14:00 -12°C° 0.3 mm 6 mps 741 mmHg 91%
    15:00 -12°C° 0.3 mm 6 mps 740 mmHg 91%
    16:00 -12°C° 0.3 mm 7 mps 740 mmHg 91%
    17:00 -12°C° 0.3 mm 7 mps 740 mmHg 90%
    18:00 -12°C° 0.3 mm 7 mps 740 mmHg 90%
    19:00 -11°C° 0.3 mm 7 mps 740 mmHg 89%
    20:00 -11°C° 0.2 mm 7 mps 740 mmHg 88%
    21:00 -11°C° 0.2 mm 7 mps 740 mmHg 88%
    22:00 -11°C° 0.2 mm 7 mps 739 mmHg 87%
    23:00 -11°C° 0.2 mm 7 mps 739 mmHg 88%

    25 November, Sunday

    Time Temperature Precipitation Wind Pressure Humidity
    00:00 -9°C° 0.2 mm 7 mps 739 mmHg 88%
    01:00 -9°C° 0.2 mm 7 mps 739 mmHg 89%
    02:00 -9°C° 0.2 mm 7 mps 739 mmHg 89%
    03:00 -9°C° 0.2 mm 7 mps 739 mmHg 88%
    04:00 -10°C° 0.2 mm 8 mps 738 mmHg 88%
    05:00 -8°C° 0.2 mm 8 mps 738 mmHg 88%
    06:00 -8°C° 0.2 mm 8 mps 738 mmHg 88%
    07:00 -8°C° 0.2 mm 8 mps 738 mmHg 88%
    08:00 -8°C° 0.3 mm 8 mps 738 mmHg 88%
    09:00 -8°C° 0.3 mm 7 mps 738 mmHg 88%
    10:00 -8°C° 0.3 mm 7 mps 738 mmHg 88%
    11:00 -7°C° 0.2 mm 7 mps 739 mmHg 88%
    12:00 -7°C° 0.2 mm 7 mps 739 mmHg 88%
    13:00 -7°C° 0.2 mm 7 mps 739 mmHg 87%
    14:00 -6°C° 0.1 mm 6 mps 740 mmHg 87%
    15:00 -6°C° 0.1 mm 6 mps 740 mmHg 87%
    16:00 -7°C° 0.1 mm 5 mps 741 mmHg 87%
    17:00 -7°C° 0.1 mm 5 mps 741 mmHg 89%
    18:00 -7°C° 0.1 mm 5 mps 742 mmHg 90%
    19:00 -7°C° 0.1 mm 4 mps 743 mmHg 91%
    20:00 -8°C° 0.1 mm 4 mps 743 mmHg 92%
    21:00 -8°C° 0.1 mm 4 mps 743 mmHg 92%
    22:00 -8°C° 0.1 mm 4 mps 744 mmHg 93%
    23:00 -8°C° 0 mm 3 mps 744 mmHg 93%
    Show more